Location: Katowice
(50.2611°N, 19.0242°E)
Time: 22:31:18
(UTC+02:00)

Explorer 7 - Visible Passes

Search period start: 16 July 2019 00:00
Search period end: 26 July 2019 00:00
Orbit: 485 x 680 km, 50.3° (Epoch: 16 July)

Date Brightness Start Highest point End Pass type
(mag) Time Alt. Az. Time Alt. Az. Time Alt. Az.
16 Jul 7.3 01:08:02 35° SE 01:08:02 35° SE 01:11:06 10° E visible
16 Jul 6.5 02:44:19 12° W 02:47:48 86° S 02:51:46 10° E visible
17 Jul 6.7 01:12:22 50° SSE 01:12:30 50° SSE 01:16:15 10° E visible
17 Jul 6.6 02:49:05 10° W 02:52:53 88° N 02:56:51 10° E visible
17 Jul 9.1 23:40:20 10° E 23:40:20 10° E 23:40:23 10° E visible
18 Jul 6.5 01:16:37 46° SW 01:17:31 65° SSE 01:21:21 10° E visible
18 Jul 6.6 02:54:11 10° W 02:57:59 88° NNE 03:01:57 10° E visible
18 Jul 8.4 23:44:28 18° E 23:44:28 18° E 23:45:43 10° E visible
19 Jul 6.4 01:20:44 29° WSW 01:22:34 79° SSE 01:26:26 10° E visible
19 Jul 6.6 02:59:16 10° W 03:03:04 86° S 03:07:02 10° E visible
19 Jul 7.3 23:48:16 34° ESE 23:48:16 34° ESE 23:50:55 10° E visible
20 Jul 6.5 01:24:30 14° W 01:27:38 89° S 01:31:31 10° E visible
20 Jul 6.5 03:04:21 10° W 03:08:09 75° SSW 03:12:06 10° ESE visible
20 Jul 8.7 22:14:33 11° ESE 22:14:33 11° ESE 22:14:49 10° E visible
20 Jul 6.5 23:50:26 26° SW 23:52:19 55° SSE 23:56:02 10° E visible
21 Jul 6.5 01:28:58 10° W 01:32:44 88° N 01:36:37 10° E visible
21 Jul 6.6 03:09:26 10° W 03:13:11 61° SSW 03:17:05 10° ESE visible
21 Jul 7.6 22:14:13 10° SSW 22:17:17 23° SE 22:20:19 10° E visible
21 Jul 6.4 23:53:37 10° WSW 23:57:21 70° SSE 00:01:08 10° E visible
22 Jul 6.5 01:34:03 10° W 01:37:49 89° NW 01:41:42 10° E visible
22 Jul 6.9 03:14:32 10° W 03:18:11 46° SSW 03:21:59 10° SE visible
22 Jul 7.2 22:18:46 10° SW 22:22:11 33° SSE 22:25:36 10° E visible
22 Jul 6.4 23:58:39 10° WSW 00:02:25 83° S 00:06:13 10° E visible
23 Jul 6.4 01:39:08 10° W 01:42:54 83° S 01:46:47 10° ESE visible
23 Jul 7.2 03:19:41 10° W 03:23:09 34° SSW 03:26:45 10° SE visible
23 Jul 6.8 22:23:31 10° SW 22:27:09 45° SSE 22:30:45 10° E visible
24 Jul 6.5 00:03:44 10° W 00:07:30 89° N 00:11:18 10° E visible
24 Jul 6.4 01:44:13 10° W 01:47:57 70° SSW 01:51:49 10° ESE visible
24 Jul 7.7 03:24:57 10° W 03:28:05 24° SW 03:31:16 10° SSE visible
24 Jul 6.5 22:28:24 10° WSW 22:32:09 60° SSE 22:35:52 10° E visible
25 Jul 6.5 00:08:49 10° W 00:12:35 88° N 00:16:23 10° E visible
25 Jul 6.6 01:49:18 10° W 01:53:00 55° SSW 01:53:10 54° S visible
25 Jul 8.6 03:34:41 13° S 03:34:41 13° S 03:35:28 10° S visible
25 Jul 6.4 22:33:24 10° WSW 22:37:11 75° SSE 22:40:57 10° E visible
